Hourly Weather Alimovskiy

Today, 24 February, Wednesday

Time Temperature Precipitation Wind Pressure Humidity
00:00 -27°C° 0 mm 4 mps 771 mmHg 82%
01:00 -27°C° 0 mm 4 mps 771 mmHg 83%
02:00 -26°C° 0 mm 3 mps 771 mmHg 84%
03:00 -26°C° 0 mm 3 mps 771 mmHg 87%
04:00 -26°C° 0 mm 3 mps 771 mmHg 87%
05:00 -25°C° 0 mm 2 mps 771 mmHg 87%
06:00 -26°C° 0 mm 2 mps 772 mmHg 88%
07:00 -25°C° 0 mm 2 mps 772 mmHg 84%
08:00 -25°C° 0 mm 2 mps 772 mmHg 81%
09:00 -24°C° 0 mm 2 mps 771 mmHg 77%
10:00 -23°C° 0 mm 2 mps 771 mmHg 73%
11:00 -18°C° 0 mm 1 mps 771 mmHg 68%
12:00 -17°C° 0 mm 1 mps 771 mmHg 63%
13:00 -16°C° 0 mm 1 mps 771 mmHg 61%
14:00 -15°C° 0 mm 1 mps 770 mmHg 60%
15:00 -15°C° 0 mm 1 mps 770 mmHg 56%
16:00 -15°C° 0 mm 1 mps 769 mmHg 61%
17:00 -15°C° 0 mm 1 mps 769 mmHg 67%
18:00 -15°C° 0 mm 1 mps 768 mmHg 72%
19:00 -15°C° 0 mm 1 mps 768 mmHg 71%
20:00 -15°C° 0 mm 1 mps 768 mmHg 70%
21:00 -14°C° 0 mm 1 mps 768 mmHg 70%
22:00 -16°C° 0 mm 2 mps 768 mmHg 71%
23:00 -16°C° 0 mm 2 mps 768 mmHg 72%

Tomorrow, 25 February, Thursday

Time Temperature Precipitation Wind Pressure Humidity
00:00 -16°C° 0 mm 2 mps 768 mmHg 73%
01:00 -16°C° 0 mm 3 mps 767 mmHg 74%
02:00 -16°C° 0 mm 3 mps 767 mmHg 75%
03:00 -17°C° 0 mm 4 mps 766 mmHg 76%
04:00 -16°C° 0 mm 4 mps 766 mmHg 76%
05:00 -16°C° 0 mm 4 mps 766 mmHg 77%
06:00 -17°C° 0 mm 5 mps 765 mmHg 78%
07:00 -17°C° 0 mm 5 mps 765 mmHg 77%
08:00 -15°C° 0 mm 5 mps 764 mmHg 76%
09:00 -16°C° 0 mm 6 mps 763 mmHg 76%
10:00 -15°C° 0 mm 6 mps 763 mmHg 77%
11:00 -14°C° 0 mm 6 mps 763 mmHg 79%
12:00 -13°C° 0 mm 7 mps 762 mmHg 80%
13:00 -12°C° 0.1 mm 7 mps 761 mmHg 84%
14:00 -12°C° 0.1 mm 7 mps 761 mmHg 87%
15:00 -11°C° 0.1 mm 7 mps 760 mmHg 90%
16:00 -11°C° 0.1 mm 7 mps 759 mmHg 91%
17:00 -9°C° 0.1 mm 7 mps 758 mmHg 91%
18:00 -9°C° 0.1 mm 7 mps 758 mmHg 92%
19:00 -8°C° 0.1 mm 7 mps 757 mmHg 92%
20:00 -8°C° 0.1 mm 7 mps 757 mmHg 93%
21:00 -7°C° 0.1 mm 7 mps 756 mmHg 93%
22:00 -6°C° 0.1 mm 7 mps 756 mmHg 94%
23:00 -6°C° 0.1 mm 7 mps 755 mmHg 94%

Day after tomorrow, 26 February, Friday

Time Temperature Precipitation Wind Pressure Humidity
00:00 -4°C° 0.1 mm 7 mps 754 mmHg 95%
01:00 -4°C° 0.1 mm 7 mps 754 mmHg 95%
02:00 -3°C° 0.1 mm 6 mps 754 mmHg 96%
03:00 -2°C° 0.1 mm 6 mps 754 mmHg 96%
04:00 -1°C° 0.1 mm 5 mps 754 mmHg 96%
05:00 -1°C° 0.1 mm 5 mps 754 mmHg 97%
06:00 0°C° 0.1 mm 5 mps 754 mmHg 97%
07:00 0°C° 0 mm 5 mps 754 mmHg 98%
08:00 0°C° 0 mm 5 mps 754 mmHg 98%
09:00 0°C° 0 mm 5 mps 754 mmHg 98%
10:00 0°C° 0 mm 5 mps 754 mmHg 98%
11:00 0°C° 0 mm 5 mps 754 mmHg 98%
12:00 +1°C° 0 mm 5 mps 754 mmHg 99%
13:00 +1°C° 0 mm 5 mps 753 mmHg 99%
14:00 +1°C° 0 mm 5 mps 753 mmHg 98%
15:00 +1°C° 0 mm 6 mps 753 mmHg 98%
16:00 +1°C° 0 mm 6 mps 752 mmHg 98%
17:00 +1°C° 0 mm 6 mps 752 mmHg 97%
18:00 +1°C° 0 mm 6 mps 752 mmHg 97%
19:00 +1°C° 0 mm 6 mps 751 mmHg 96%
20:00 +1°C° 0 mm 6 mps 751 mmHg 96%
21:00 +1°C° 0 mm 6 mps 751 mmHg 95%
22:00 +1°C° 0 mm 6 mps 750 mmHg 95%
23:00 +1°C° 0 mm 6 mps 750 mmHg 95%

27 February, Saturday

Time Temperature Precipitation Wind Pressure Humidity
00:00 +1°C° 0 mm 6 mps 749 mmHg 95%
01:00 +1°C° 0 mm 6 mps 749 mmHg 95%
02:00 +1°C° 0 mm 6 mps 749 mmHg 94%
03:00 +1°C° 0 mm 6 mps 749 mmHg 94%
04:00 0°C° 0 mm 5 mps 749 mmHg 94%
05:00 0°C° 0 mm 5 mps 748 mmHg 95%
06:00 0°C° 0 mm 5 mps 748 mmHg 95%
07:00 0°C° 0 mm 5 mps 748 mmHg 95%
08:00 0°C° 0 mm 5 mps 748 mmHg 95%
09:00 0°C° 0 mm 5 mps 748 mmHg 95%
10:00 0°C° 0 mm 5 mps 747 mmHg 93%
11:00 +1°C° 0 mm 5 mps 747 mmHg 91%
12:00 +1°C° 0 mm 6 mps 747 mmHg 89%
13:00 +1°C° 0 mm 6 mps 747 mmHg 88%
14:00 +1°C° 0 mm 6 mps 747 mmHg 87%
15:00 +1°C° 0 mm 6 mps 747 mmHg 86%
16:00 +1°C° 0 mm 6 mps 747 mmHg 87%
17:00 0°C° 0 mm 5 mps 746 mmHg 89%
18:00 -1°C° 0 mm 4 mps 746 mmHg 91%
19:00 -1°C° 0 mm 4 mps 747 mmHg 92%
20:00 -1°C° 0 mm 4 mps 747 mmHg 92%
21:00 -2°C° 0 mm 4 mps 747 mmHg 93%
22:00 -2°C° 0 mm 4 mps 747 mmHg 94%
23:00 -1°C° 0 mm 4 mps 747 mmHg 95%

28 February, Sunday

Time Temperature Precipitation Wind Pressure Humidity
00:00 -1°C° 0 mm 4 mps 747 mmHg 95%
01:00 -1°C° 0 mm 4 mps 747 mmHg 96%
02:00 -1°C° 0 mm 4 mps 747 mmHg 97%
03:00 -2°C° 0 mm 4 mps 747 mmHg 97%
04:00 -2°C° 0.1 mm 4 mps 747 mmHg 97%
05:00 -2°C° 0.1 mm 4 mps 747 mmHg 97%
06:00 -1°C° 0.1 mm 3 mps 748 mmHg 96%
07:00 -1°C° 0 mm 3 mps 748 mmHg 94%
08:00 -1°C° 0 mm 3 mps 748 mmHg 92%
09:00 -1°C° 0 mm 3 mps 749 mmHg 89%
10:00 0°C° 0 mm 3 mps 749 mmHg 86%
11:00 -1°C° 0 mm 4 mps 749 mmHg 82%
12:00 -1°C° 0 mm 4 mps 750 mmHg 79%
13:00 -1°C° 0 mm 4 mps 750 mmHg 78%
14:00 -2°C° 0 mm 5 mps 751 mmHg 76%
15:00 -2°C° 0 mm 5 mps 751 mmHg 75%
16:00 -4°C° 0 mm 5 mps 751 mmHg 75%
17:00 -5°C° 0 mm 5 mps 751 mmHg 75%
18:00 -6°C° 0 mm 5 mps 752 mmHg 75%
19:00 -6°C° 0 mm 5 mps 752 mmHg 76%
20:00 -5°C° 0 mm 4 mps 753 mmHg 76%
21:00 -5°C° 0 mm 4 mps 754 mmHg 76%
22:00 -5°C° 0 mm 4 mps 754 mmHg 76%
23:00 -5°C° 0 mm 4 mps 755 mmHg 77%

1 March, Monday

Time Temperature Precipitation Wind Pressure Humidity
00:00 -7°C° 0 mm 4 mps 755 mmHg 77%
01:00 -7°C° 0 mm 4 mps 755 mmHg 77%
02:00 -7°C° 0 mm 4 mps 756 mmHg 76%
03:00 -6°C° 0 mm 3 mps 756 mmHg 76%
04:00 -7°C° 0 mm 3 mps 756 mmHg 76%
05:00 -7°C° 0 mm 3 mps 757 mmHg 77%
06:00 -7°C° 0 mm 3 mps 757 mmHg 77%
07:00 -8°C° 0 mm 4 mps 757 mmHg 76%
08:00 -8°C° 0 mm 4 mps 758 mmHg 75%
09:00 -8°C° 0 mm 4 mps 758 mmHg 74%
10:00 -7°C° 0 mm 4 mps 758 mmHg 72%
11:00 -5°C° 0 mm 4 mps 759 mmHg 69%
12:00 -4°C° 0 mm 4 mps 759 mmHg 66%
13:00 -4°C° 0 mm 4 mps 759 mmHg 66%
14:00 -4°C° 0 mm 4 mps 759 mmHg 66%
15:00 -3°C° 0 mm 4 mps 759 mmHg 66%
16:00 -4°C° 0 mm 4 mps 759 mmHg 68%
17:00 -4°C° 0 mm 4 mps 760 mmHg 69%
18:00 -4°C° 0 mm 4 mps 760 mmHg 71%
19:00 -4°C° 0 mm 3 mps 760 mmHg 70%
20:00 -4°C° 0 mm 3 mps 760 mmHg 70%
21:00 -4°C° 0 mm 3 mps 760 mmHg 70%
22:00 -4°C° 0 mm 3 mps 760 mmHg 70%
23:00 -4°C° 0 mm 3 mps 760 mmHg 70%
Show more